Weather History for Skagway, AK

Change the Weather History Date:

Friday, December 16, 2011

  Actual Average Record
Temperature  
Mean Temperature 36 °F -  
Max Temperature 41 °F 32 °F 48 °F (2005)
Min Temperature 32 °F 24 °F 4 °F (1987)
Degree Days  
Heating Degree Days 28    
Moisture  
Dew Point 31 °F    
Average Humidity 83    
Maximum Humidity 100    
Minimum Humidity 62    
Precipitation  
Precipitation 0.05 in - - ()
Sea Level Pressure  
Sea Level Pressure 29.80 in    
Wind  
Wind Speed 10 mph (ESE)    
Max Wind Speed 22 mph    
Max Gust Speed 38 mph    
Visibility 7 miles    
Events Fog , Snow    
Averages and records for this station are not official NWS values.
T = Trace of Precipitation, MM = Missing Value Source: NWS Daily Summary

Daily Weather History Graph

Daily Weather History Graph

Search for Another Location

Airport:

Trip Planner

Search our weather history database for the weather conditions in past years. The results will help you decide how hot, cold, wet, or windy it might be!

Date:

Astronomy

Dec. 16, 2011 Rise Set
Actual Time 8:54 AM AKST 2:59 PM AKST
Civil Twilight 7:58 AM AKST 3:55 PM AKST
Nautical Twilight 7:03 AM AKST 4:50 PM AKST
Astronomical Twilight 6:12 AM AKST 5:41 PM AKST
Moon 11:17 PM AKST (12/16) 11:17 AM AKST (12/16)
Length of Visible Light 7h 56m
Length of Day
6h 04m
Waning Gibbous, 63% of the Moon is Illuminated
Dec 16
Waning Gibbous
Dec 17
Last Quarter
Dec 24
New
Dec 31
First Quarter
Jan 8
Full

Hourly Weather History & Observations

Time (AKST) Temp. Windchill Dew Point Humidity Pressure Visibility Wind Dir Wind Speed Gust Speed Precip Events Conditions
12:53 AM 39.0 °F 29.0 °F 32.0 °F 76% 29.92 in 10.0 mi SSW 20.7 mph 38.0 mph N/A   Overcast
1:53 AM 39.0 °F 28.8 °F 32.0 °F 76% 29.93 in 10.0 mi SSW 21.9 mph 34.5 mph N/A   Overcast
3:53 AM 39.0 °F 30.3 °F 30.9 °F 73% 29.93 in 10.0 mi SSW 16.1 mph 25.3 mph N/A   Overcast
4:53 AM 36.0 °F - 30.9 °F 82% 29.91 in 10.0 mi Calm Calm - N/A   Clear
5:53 AM 34.0 °F 27.2 °F 30.0 °F 85% 29.90 in 10.0 mi NE 8.1 mph - N/A   Clear
6:53 AM 33.1 °F 27.7 °F 30.0 °F 89% 29.88 in 10.0 mi NE 5.8 mph - N/A   Mostly Cloudy
7:53 AM 34.0 °F - 30.0 °F 85% 29.86 in 10.0 mi Calm Calm - N/A   Overcast
8:27 AM 33.8 °F - 28.4 °F 81% 29.83 in 10.0 mi Calm Calm - N/A   Overcast
8:53 AM 34.0 °F - 28.9 °F 82% 29.83 in 10.0 mi Calm Calm - N/A   Overcast
9:53 AM 33.1 °F 26.9 °F 28.9 °F 85% 29.81 in 3.0 mi NE 6.9 mph - 0.00 in Snow Light Snow
9:57 AM 33.8 °F 28.6 °F 28.4 °F 81% 29.80 in 2.5 mi NE 5.8 mph - 0.00 in Snow Light Snow
10:07 AM 32.0 °F 27.5 °F 30.2 °F 93% 29.80 in 4.0 mi NE 4.6 mph - 0.00 in Snow Light Snow
10:37 AM 33.8 °F 29.6 °F 30.2 °F 87% 29.80 in 1.8 mi NNE 4.6 mph - 0.00 in Snow Light Snow
10:41 AM 33.8 °F 27.7 °F 30.2 °F 87% 29.79 in 0.8 mi NNE 6.9 mph - 0.00 in Snow Light Snow
10:53 AM 32.0 °F 26.4 °F 30.0 °F 92% 29.78 in 0.5 mi NE 5.8 mph - 0.02 in Fog , Snow Snow
11:11 AM 32.0 °F 27.5 °F 30.2 °F 93% 29.77 in 1.0 mi NE 4.6 mph - 0.01 in Snow Light Snow
11:26 AM 32.0 °F 26.4 °F 30.2 °F 93% 29.77 in 2.0 mi NE 5.8 mph - 0.01 in Snow Light Snow
11:35 AM 32.0 °F 27.5 °F 30.2 °F 93% 29.77 in 5.0 mi NE 4.6 mph - 0.01 in Snow Light Snow
11:53 AM 32.0 °F - 32.0 °F 100% 29.76 in 2.5 mi Calm Calm - 0.01 in Snow Light Snow
12:14 PM 32.0 °F - 30.2 °F 93% 29.76 in 1.2 mi Calm Calm - 0.01 in Snow Light Snow
12:30 PM 32.0 °F - 32.0 °F 100% 29.75 in 2.0 mi Calm Calm - 0.01 in Snow Light Snow
12:39 PM 33.8 °F - 32.0 °F 93% 29.75 in 4.0 mi Calm Calm - 0.01 in Snow Light Snow
12:53 PM 32.0 °F - 30.9 °F 96% 29.75 in 9.0 mi Calm Calm - 0.01 in   Overcast
1:22 PM 33.8 °F - 30.2 °F 87% 29.74 in 10.0 mi Calm Calm - 0.00 in   Overcast
1:35 PM 33.8 °F 29.6 °F 30.2 °F 87% 29.74 in 10.0 mi NE 4.6 mph - N/A   Overcast
1:53 PM 34.0 °F 28.0 °F 32.0 °F 92% 29.74 in 10.0 mi NNE 6.9 mph - 0.00 in   Overcast
2:07 PM 35.6 °F 29.2 °F 33.8 °F 93% 29.73 in 10.0 mi ENE 8.1 mph 16.1 mph 0.01 in   Overcast
2:53 PM 39.9 °F 35.1 °F 30.9 °F 70% 29.72 in 10.0 mi South 6.9 mph - 0.01 in   Overcast
3:53 PM 39.9 °F 32.1 °F 32.0 °F 73% 29.73 in 10.0 mi SSW 13.8 mph 21.9 mph N/A   Overcast
4:53 PM 39.9 °F 32.5 °F 30.9 °F 70% 29.74 in 10.0 mi SSW 12.7 mph 29.9 mph N/A   Overcast
5:53 PM 41.0 °F 35.8 °F 30.0 °F 65% 29.76 in 10.0 mi SSW 8.1 mph 28.8 mph N/A   Overcast
6:53 PM 41.0 °F 32.2 °F 28.9 °F 62% 29.77 in 10.0 mi SSW 18.4 mph 28.8 mph N/A   Overcast
7:53 PM 39.9 °F 30.0 °F 30.0 °F 68% 29.80 in 10.0 mi SSW 21.9 mph 28.8 mph N/A   Clear
8:53 PM 39.0 °F 30.3 °F 30.9 °F 73% 29.81 in 10.0 mi SSW 16.1 mph 26.5 mph N/A   Partly Cloudy
9:53 PM 39.0 °F 30.6 °F 30.9 °F 73% 29.82 in 10.0 mi SSW 15.0 mph 21.9 mph N/A   Overcast
10:53 PM 39.0 °F 31.4 °F 30.9 °F 73% 29.83 in 10.0 mi SSW 12.7 mph - N/A   Mostly Cloudy
11:53 PM 37.9 °F 30.5 °F 30.9 °F 76% 29.83 in 10.0 mi South 11.5 mph 20.7 mph N/A   Partly Cloudy